FW0042 Weather Reports


time (UTC)temp
F
wind
direction
speed
knots
gust
knots
rain 1hr
in
rain 24hr
in
rain mn
in
humidity
%
barometer
mb
20260506223026 36 302 0.0 0.0 0.00 0.01 0.00 94 1015.3
20260506220028 36 302 0.0 0.0 0.00 0.01 0.00 94 1015.2
20260506214521 37 302 0.0 0.0 0.00 0.01 0.01 94 1015.2
20260506213020 37 302 0.0 0.0 0.00 0.01 0.01 93 1015.2
20260506211518 37 302 0.0 0.9 0.00 0.01 0.01 93 1015.3
20260506210020 37 315 0.0 0.0 0.00 0.01 0.01 93 1015.2
20260506204523 38 320 0.0 0.0 0.00 0.01 0.01 94 1015.1
20260506203015 38 320 0.0 0.0 0.00 0.01 0.01 93 1015.0
20260506201519 38 320 0.0 0.0 0.00 0.01 0.01 93 1015.1
20260506200024 38 320 0.0 0.0 0.00 0.01 0.01 93 1015.1
20260506194515 38 320 0.0 0.0 0.00 0.01 0.01 93 1015.0
20260506193016 38 320 0.0 0.0 0.00 0.01 0.01 93 1014.9
20260506191514 38 319 0.0 0.0 0.00 0.01 0.01 92 1014.8
20260506190013 39 319 0.0 0.0 0.00 0.01 0.01 92 1014.7
20260506184513 39 319 0.0 0.0 0.00 0.01 0.01 92 1014.6
20260506183011 39 319 0.0 0.0 0.00 0.01 0.01 91 1014.6
20260506181511 40 320 0.0 0.0 0.00 0.01 0.01 90 1014.6
20260506180011 41 320 0.0 0.0 0.00 0.01 0.01 91 1014.5
20260506174512 41 320 0.0 0.0 0.00 0.01 0.01 91 1014.5
20260506173010 41 320 0.0 0.0 0.00 0.01 0.01 91 1014.5
20260506171509 41 319 0.0 0.0 0.00 0.01 0.01 91 1014.4
20260506170009 41 350 0.0 0.0 0.00 0.01 0.01 91 1014.5
20260506164509 40 337 0.0 0.0 0.00 0.01 0.01 91 1014.4
20260506163012 40 236 0.0 0.0 0.00 0.01 0.01 91 1014.4
20260506161508 39 198 0.0 0.0 0.00 0.01 0.01 90 1014.3
20260506160012 39 198 0.0 0.0 0.00 0.01 0.01 90 1014.5
20260506154508 39 197 0.0 0.0 0.00 0.01 0.01 91 1014.6
20260506153006 38 197 0.0 0.0 0.00 0.01 0.01 90 1014.7
20260506151506 38 197 0.0 0.0 0.00 0.01 0.01 91 1014.8
20260506150007 38 170 0.0 0.0 0.00 0.01 0.01 90 1014.8
20260506144605 38 135 0.0 0.9 0.00 0.01 0.01 90 1014.8
20260506143013 38 123 0.0 0.0 0.00 0.01 0.01 89 1014.9
20260506141504 40 160 0.0 1.7 0.00 0.01 0.01 87 1015.1
20260506140003 40 165 0.0 0.0 0.00 0.01 0.01 87 1014.6
20260506134504 40 143 0.0 0.0 0.00 0.01 0.01 86 1014.6
20260506133002 40 157 0.0 0.0 0.00 0.01 0.01 86 1014.7
20260506130107 40 26 0.0 0.0 0.00 0.01 0.01 90 1014.9
20260506124601 39 5 0.0 0.0 0.00 0.01 0.01 89 1015.0
20260506123057 40 350 0.9 10.4 0.00 0.01 0.01 85 1014.7
20260506121604 41 144 0.0 0.0 0.00 0.01 0.01 83 1014.3
20260506120109 41 133 0.0 0.0 0.00 0.01 0.01 83 1014.1
20260506114610 42 129 0.0 2.6 0.00 0.01 0.01 83 1014.1
20260506113054 42 107 0.0 5.2 0.00 0.01 0.01 84 1014.3
20260506111554 41 157 0.0 1.7 0.00 0.01 0.01 87 1014.3
20260506110052 40 116 0.0 0.0 0.00 0.01 0.01 91 1014.3
20260506104551 39 324 0.0 0.0 0.00 0.01 0.01 91 1014.5
20260506103049 37 316 0.0 0.0 0.00 0.01 0.01 91 1014.5
20260506101548 37 5 0.0 0.0 0.00 0.01 0.01 88 1014.5
20260506100049 37 28 0.0 2.6 0.00 0.01 0.01 87 1014.5
20260506094547 39 9 0.0 10.4 0.00 0.01 0.01 84 1014.4
20260506093103 39 126 0.0 0.0 0.00 0.01 0.01 83 1013.9
20260506091546 40 140 0.0 0.0 0.00 0.01 0.01 84 1013.8
20260506090046 41 121 0.0 4.3 0.00 0.01 0.01 82 1013.7
20260506084541 42 96 0.0 0.9 0.00 0.02 0.01 83 1013.8
20260506083040 41 130 0.0 1.7 0.00 0.02 0.01 86 1014.0
20260506081533 39 121 0.0 2.6 0.00 0.02 0.01 86 1014.0
20260506073029 39 131 0.0 1.7 0.00 0.02 0.01 89 1014.1
20260506071526 38 118 0.0 0.0 0.00 0.02 0.01 90 1014.1
20260506061510 0 0.0 0.0 0.00 0.02 0.01 1014.0
20260506044545 0 0.0 0.0 0.00 0.02 0.01 1013.6
20260506043039 0 0.0 0.0 0.00 0.02 0.01 1013.9
20260506041535 0 0.0 0.0 0.00 0.02 0.01 1013.9
20260506040030 0 0.0 0.0 0.00 0.02 0.01 1013.9
20260506034526 0 0.0 0.0 0.00 0.02 0.01 1013.9
20260506033021 0 0.0 0.0 0.00 0.02 0.01 1013.9
20260506031516 0 0.0 0.0 0.00 0.02 0.01 1013.7
20260506030014 0 0.0 0.0 0.00 0.02 0.01 1013.6
20260506024507 0 0.0 0.0 0.00 0.02 0.01 1013.8
20260506023002 34 311 0.0 0.0 0.00 0.02 0.01 95 1013.9
20260506021503 34 311 0.0 0.0 0.00 0.02 0.01 95 1013.9
20260506020003 34 311 0.0 0.0 0.00 0.02 0.01 95 1013.9
20260506014502 34 311 0.0 0.0 0.00 0.02 0.01 95 1014.0
20260506013100 34 311 0.0 0.0 0.00 0.02 0.01 94 1014.1
20260506011602 34 312 0.0 0.0 0.00 0.02 0.01 95 1014.0
20260506010058 34 312 0.0 0.0 0.00 0.02 0.01 94 1014.0
20260506004557 34 312 0.0 0.0 0.01 0.02 0.01 94 1014.0
20260506003058 34 312 0.0 0.0 0.01 0.02 0.01 94 1014.0
20260506001606 34 312 0.0 0.0 0.01 0.02 0.01 94 1013.9
20260506000119 33 312 0.0 0.0 0.01 0.02 0.01 94 1014.0
20260505234556 33 312 0.0 0.0 0.00 0.01 0.00 94 1014.0
20260505233054 33 312 0.0 0.0 0.00 0.01 0.00 93 1013.9
20260505231555 33 302 0.0 0.0 0.00 0.01 0.00 93 1014.0
20260505230051 33 302 0.0 0.0 0.00 0.01 0.00 93 1014.0
20260505224550 34 302 0.0 0.0 0.00 0.01 0.00 93 1014.0